SCP
0 1 1 0 0 0 0 0 0 0 0 0 0 0 0 0 0 0 0 0 0 0 1 1 1 1 1 1 0 0 0 0 0 0 0 0 0 0 0 0 0 0 0 0 0 0 0 1 1
1 1 1 0 0 0 0 0 0 0 0 0 0 0 0 0 0 0 0 0 1 1 1 1 1 1 1 1 0 0 0 0 0 0 0 0 0 0 0 0 0 0 0 0 0 0 1 1 1
1 1 1 0 0 0 0 0 0 0 0 0 0 0 0 0 0 0 0 1 1 1 0 0 0 1 1 0 0 0 0 0 0 0 0 0 0 0 0 0 0 0 0 0 0 1 1 1 1
1 1 0 0 0 0 0 0 0 0 0 0 0 0 0 0 0 0 0 1 1 0 0 0 0 0 0 0 0 0 0 0 0 0 0 0 0 0 0 0 0 0 0 0 1 1 1 1 1
1 1 0 0 0 0 0 0 0 0 0 0 0 0 0 0 0 0 0 1 0 0 0 0 0 0 0 0 0 0 0 0 0 0 0 0 0 0 0 0 0 0 0 0 0 0 0 1 1
1 0 0 0 0 0 0 0 0 0 0 0 0 0 0 0 1 1 0 0 0 0 0 0 0 0 0 0 0 0 0 0 0 0 0 0 0 0 0 0 0 0 0 0 0 0 0 0 0
1 0 0 0 0 0 1 0 0 0 0 0 0 0 0 0 1 1 0 0 0 0 0 0 0 0 0 0 0 0 0 0 0 0 0 0 0 0 0 0 0 0 0 0 0 0 0 0 0
1 0 0 0 0 1 1 0 0 0 0 0 0 0 0 0 1 0 0 0 0 0 0 0 0 0 0 0 0 0 0 0 0 0 0 0 0 0 0 0 0 0 0 0 0 0 0 0 0
1 0 0 1 1 1 1 0 0 0 0 0 0 0 0 0 0 0 0 0 0 0 0 0 0 0 0 0 0 0 0 0 0 0 0 0 0 0 0 0 0 0 0 0 0 0 0 0 0
1 1 1 1 1 1 1 1 0 0 0 0 0 0 0 0 0 0 0 0 0 0 0 0 0 0 0 0 0 0 0 0 0 0 0 0 0 0 0 0 0 0 0 0 0 0 0 0 0
1 1 1 1 1 1 0 0 0 0 0 0 0 0 0 0 0 0 0 0 0 0 0 0 0 0 0 0 0 0 0 0 0 0 0 0 0 0 0 0 0 0 0 0 0 0 0 0 0
1 1 1 1 1 0 0 0 0 1 0 0 0 0 0 0 0 0 0 0 0 0 0 0 0 0 0 0 0 0 0 0 0 0 0 0 0 0 0 0 0 0 0 0 0 0 0 0 0
1 1 1 1 1 0 0 0 0 0 0 0 0 0 0 0 0 0 0 0 0 0 0 0 0 0 0 0 0 0 0 0 0 0 0 0 0 0 0 0 0 0 0 0 0 0 0 0 0
1 1 1 1 1 0 0 0 0 0 0 0 0 0 0 0 0 0 0 0 0 0 0 0 0 0 0 0 0 0 0 0 0 0 0 0 0 0 0 0 0 0 0 0 0 0 0 0 0
1 1 1 1 1 0 0 0 0 0 0 0 0 0 0 0 0 0 0 0 0 0 0 0 0 0 0 0 0 0 0 0 0 0 0 0 0 0 0 0 0 0 0 0 0 0 0 0 0
1 1 1 1 0 0 0 0 0 0 0 0 0 0 0 0 0 0 0 0 0 0 0 0 0 0 0 0 0 0 0 0 0 0 0 0 0 0 0 0 0 0 0 0 0 0 0 0 0
1 0 0 0 0 0 0 0 0 0 0 0 0 0 0 0 0 0 0 0 0 0 1 1 1 1 0 0 0 0 0 0 0 0 0 0 0 0 0 0 0 0 0 0 0 0 0 0 0
0 0 0 0 0 0 0 0 0 0 0 0 0 0 0 0 0 0 0 0 0 1 1 1 1 1 1 0 0 0 0 0 0 0 0 0 0 0 0 0 0 0 0 0 0 0 0 0 0
0 0 0 0 0 0 0 0 0 0 0 0 0 0 0 0 0 0 0 0 0 1 1 1 1 1 1 1 0 0 0 0 0 0 0 0 0 0 0 0 0 0 0 0 0 0 0 0 0
0 0 0 0 0 0 0 0 0 0 0 0 0 0 0 0 0 0 0 0 0 1 1 1 1 1 1 1 0 0 0 0 0 0 0 0 0 0 0 0 0 0 0 0 0 0 0 0 0
0 0 0 0 0 0 0 0 0 0 0 0 0 0 0 0 0 0 0 0 0 1 1 1 1 1 1 1 0 0 0 0 0 0 0 0 0 0 0 0 0 0 0 0 0 0 0 0 0
0 0 0 0 0 0 0 0 0 0 0 0 0 0 0 0 0 0 0 0 0 1 1 1 1 1 1 1 0 0 0 0 0 0 0 0 0 0 0 0 0 0 0 0 0 0 0 0 0
0 0 0 0 0 0 0 0 0 0 0 0 0 0 0 0 0 0 0 0 0 1 1 1 1 1 1 1 0 0 0 0 0 0 0 0 0 0 0 0 0 0 0 0 0 0 0 0 0
0 0 0 0 0 0 0 0 0 0 0 0 0 0 0 0 0 0 0 0 0 1 1 2 2 1 1 1 0 0 0 0 0 0 0 0 0 0 0 0 0 0 0 0 0 0 0 0 0
0 0 0 0 0 0 0 0 0 0 0 0 0 0 0 0 0 0 0 0 1 1 2 2 2 1 1 1 0 0 0 0 0 0 0 0 0 0 0 0 0 0 0 0 0 0 0 0 0
0 0 0 0 0 0 0 0 0 0 0 0 0 0 0 0 0 0 0 0 1 1 1 1 1 1 1 1 1 0 0 0 0 0 0 0 0 0 0 0 0 0 0 0 0 0 0 0 0
0 0 0 0 0 0 0 0 0 0 0 0 0 0 0 0 0 0 0 0 1 1 1 1 1 1 1 1 1 0 0 0 0 0 0 0 0 0 0 0 0 0 0 0 0 0 0 0 0
0 0 0 0 0 0 0 0 0 0 0 0 0 0 0 0 0 0 0 0 1 1 1 1 1 1 1 1 1 1 1 1 0 0 0 0 0 0 0 0 0 0 0 0 0 0 0 0 0
0 0 0 0 0 0 0 0 0 0 0 0 0 0 0 0 0 0 0 0 1 1 1 1 1 1 1 1 1 1 1 1 1 0 0 0 0 0 0 0 0 0 0 0 0 0 0 0 0
0 0 0 0 0 0 0 0 0 0 0 0 0 0 0 0 0 0 0 0 1 1 1 1 1 1 1 1 1 1 1 1 1 0 0 0 0 0 0 0 0 0 0 0 0 0 0 0 0
Wind_Speed
3 3 3 3 3 3 7 6 5 6 6 7 8 7 9 9 7 8 5 5 6 7 8 10 10 11 11 11 11 11 11 11 10 10 10 9 9 9 8 8 8 8 7 7 7 7 6 7 7
3 3 4 3 1 6 7 6 8 8 7 7 7 8 9 9 8 8 6 7 7 8 9 10 11 11 12 12 12 12 12 11 11 10 10 9 9 8 8 8 8 8 7 7 7 7 7 6 6
2 3 3 1 3 5 8 7 9 8 6 5 6 7 7 7 7 7 8 9 9 9 10 11 11 12 12 12 12 11 11 11 11 10 9 9 8 8 8 7 7 7 7 7 7 7 6 6 6
3 3 2 3 9 8 7 8 8 8 7 6 7 9 8 7 7 10 11 10 10 10 10 11 10 12 12 12 11 11 11 11 10 9 8 8 7 7 7 6 6 7 7 7 6 6 6 6 6
3 2 3 7 9 8 7 6 5 7 6 8 9 11 11 9 12 12 11 10 10 10 10 11 11 11 11 11 11 11 11 10 9 9 8 8 7 7 6 6 6 6 7 6 6 6 6 6 6
2 2 5 8 9 8 7 6 7 10 12 11 11 12 10 9 11 11 10 9 9 9 9 10 10 10 10 10 10 10 10 9 9 8 8 8 8 7 7 7 7 6 6 6 6 6 6 6 6
1 1 5 10 10 9 7 5 7 10 11 9 8 11 10 10 9 9 9 9 8 8 8 8 9 9 10 9 10 9 9 9 8 8 7 7 7 7 7 7 7 6 7 7 7 7 6 6 6
1 2 7 8 9 8 6 6 7 9 9 8 5 9 11 11 10 9 8 8 7 7 7 7 7 7 7 8 9 8 8 8 7 7 7 5 4 5 5 5 7 7 7 7 7 7 6 6 5
3 3 6 7 8 8 7 9 7 7 9 8 8 11 13 13 11 10 9 8 7 7 6 6 6 6 5 6 6 6 6 6 4 5 5 2 4 5 4 9 7 7 7 7 7 6 5 4 1
1 4 6 5 7 9 8 8 8 9 11 12 13 13 13 12 10 10 9 8 8 7 6 5 5 5 5 4 4 3 4 4 5 5 5 4 4 4 4 5 5 5 4 2 4 3 3 4 2
2 5 7 7 8 9 8 8 6 9 10 10 13 14 12 11 10 9 8 7 7 7 6 5 5 5 4 4 3 3 3 3 4 5 5 4 4 3 3 3 2 3 3 3 2 3 3 3 3
5 6 6 7 7 7 8 8 7 8 9 8 11 14 12 11 9 8 8 7 7 7 6 5 5 5 5 4 4 3 3 3 4 4 6 4 3 4 4 3 4 3 3 3 4 3 4 4 4
8 8 8 9 8 9 10 9 9 9 9 10 12 12 11 9 8 7 7 7 7 7 6 5 5 5 5 5 3 3 4 4 4 4 4 5 4 4 4 3 3 4 4 3 3 4 4 4 4
8 10 10 9 9 8 10 9 7 8 8 10 11 10 10 8 8 8 7 6 7 6 6 5 5 5 4 4 3 4 4 3 4 4 5 5 4 4 4 4 4 4 5 4 4 4 4 3 3
10 12 9 6 7 7 8 9 7 6 8 10 10 9 9 8 7 6 6 6 6 6 6 6 5 4 4 4 4 3 3 4 4 4 5 5 5 5 5 5 5 5 5 5 4 5 4 3 3
7 7 7 4 4 4 4 8 6 6 8 9 9 9 7 6 6 5 5 5 5 6 6 6 4 4 4 4 3 3 4 4 4 4 4 5 6 6 5 4 5 5 5 4 4 4 4 3 4
6 7 8 5 4 3 4 7 5 5 8 8 8 8 8 7 6 5 4 4 5 5 6 5 4 4 4 3 3 3 3 3 3 3 4 5 6 6 5 4 5 5 4 5 5 5 5 5 4
8 9 7 5 4 6 7 6 4 5 7 7 7 8 8 7 6 5 4 5 5 5 5 5 5 3 4 3 2 3 3 3 3 3 4 5 5 6 5 4 5 5 5 5 5 5 5 4 4
8 9 8 5 3 4 6 6 5 6 7 7 8 8 8 7 6 5 5 6 6 5 5 5 4 4 2 2 1 2 2 2 3 3 4 4 5 5 5 4 5 5 5 5 6 5 5 5 5
8 8 8 6 4 4 6 5 5 6 7 7 7 8 8 8 8 7 6 6 5 5 4 4 3 3 2 1 1 1 1 2 2 2 3 4 5 5 4 5 4 4 3 5 6 5 5 4 5
6 6 7 7 6 5 5 6 7 7 7 7 7 7 8 8 8 8 7 7 6 5 4 3 3 4 3 2 1 1 1 1 1 2 2 4 4 5 5 5 5 4 4 4 5 5 6 5 5
6 4 6 7 7 5 5 4 7 9 9 9 10 10 9 8 8 8 8 7 6 5 5 4 4 4 3 3 2 1 1 2 3 2 2 3 4 4 4 5 5 5 4 4 5 5 4 5 4
4 6 5 5 4 4 5 5 5 8 10 12 12 11 10 9 9 8 8 7 6 6 5 4 5 4 3 3 2 1 2 2 2 2 3 3 3 4 4 5 4 5 4 5 5 5 5 4 5
8 8 6 4 4 5 4 5 4 7 10 11 12 12 12 11 10 9 8 7 7 6 5 5 5 4 3 3 2 2 2 2 2 3 3 3 3 3 5 5 4 5 5 5 5 4 4 4 5
8 8 5 5 5 3 3 5 4 4 6 8 11 13 12 12 11 11 10 9 8 7 6 6 5 5 4 3 3 2 2 2 2 3 3 3 3 4 5 5 5 5 5 5 5 4 4 4 4
8 7 3 2 2 2 4 5 2 3 3 5 8 10 11 12 11 11 10 9 8 8 7 6 6 5 4 3 3 2 2 1 2 2 3 3 3 4 5 5 5 5 5 5 5 4 4 4 4
7 6 3 3 2 3 4 3 3 5 6 7 9 11 12 12 12 11 10 9 9 9 8 7 6 6 5 4 3 2 2 1 2 2 2 2 3 3 4 4 4 5 5 5 5 4 5 5 5
4 3 4 5 3 3 3 5 3 7 9 10 11 12 12 12 12 12 11 10 9 8 8 7 6 6 5 4 3 2 1 1 1 1 2 3 3 3 4 4 5 5 5 5 5 4 5 5 4
7 7 6 4 5 4 2 1 1 3 6 10 12 12 13 14 13 12 11 10 9 9 8 8 7 6 5 4 3 3 2 1 1 1 2 2 2 2 3 4 5 5 5 5 5 5 5 6 6
8 8 8 6 5 5 5 2 4 2 4 7 9 11 12 13 13 12 11 11 10 10 9 8 7 6 5 4 4 3 2 2 1 1 1 1 2 3 4 4 4 5 5 6 6 5 5 6 6
Wind_Direction
269 278 270 251 223 110 84 83 88 92 76 70 74 76 73 54 49 80 96 98 94 92 94 97 89 91 91 90 90 90 88 88 86 85 84 81 76 73 67 63 59 55 52 49 45 40 38 37 32
297 284 252 247 198 113 90 91 90 82 103 107 84 80 77 71 69 91 105 103 99 92 89 86 87 87 87 86 85 85 83 80 78 76 74 73 71 68 64 58 54 49 46 43 38 32 31 31 27
263 266 273 234 98 92 103 102 100 94 100 102 92 68 62 77 86 95 108 114 101 91 88 87 85 85 84 84 84 83 82 79 75 71 68 65 64 61 58 53 48 43 40 37 32 27 25 22 18
256 229 223 117 98 78 99 113 112 113 96 88 102 86 77 68 86 106 115 111 100 93 91 89 85 86 84 83 83 82 81 78 75 71 65 60 58 55 50 44 42 35 32 29 25 21 19 15 12
250 247 150 114 96 93 98 104 112 110 103 103 99 98 92 86 101 110 112 106 100 98 95 93 83 84 83 81 79 79 78 77 74 69 62 56 53 49 45 40 38 32 26 23 19 13 10 9 11
231 222 149 122 111 109 104 103 112 109 110 108 105 103 94 108 111 110 110 104 99 99 100 101 94 83 78 75 73 73 72 70 68 65 61 57 51 46 45 40 37 32 26 20 16 12 9 9 7
269 152 126 123 123 116 101 100 107 114 111 102 110 108 114 118 111 115 113 108 102 101 100 100 105 104 96 80 69 68 68 66 65 63 60 57 55 50 47 44 34 32 28 24 19 16 13 11 7
316 150 131 128 128 112 103 102 99 103 101 105 113 116 127 129 128 123 117 114 110 107 101 98 93 88 91 93 77 69 68 64 65 62 58 59 78 71 48 50 42 30 28 25 20 15 14 11 10
246 170 133 128 127 118 120 115 97 99 109 103 92 102 118 130 135 130 125 120 113 107 103 103 98 89 83 79 82 85 82 67 78 84 71 33 40 47 57 45 36 31 29 26 22 16 9 341 37
214 135 109 108 118 121 117 112 116 123 113 112 108 108 123 136 137 130 124 119 115 111 107 104 101 93 89 81 82 65 67 67 57 51 49 40 45 37 27 83 50 37 22 31 32 345 291 285 343
92 99 109 113 114 120 115 106 108 125 115 122 128 131 136 137 133 125 117 111 109 109 103 101 100 93 87 87 71 59 60 65 62 48 47 32 35 40 26 21 42 23 350 6 12 311 352 345 359
104 94 109 112 117 121 118 114 104 94 102 115 126 134 138 138 128 122 115 112 112 107 100 95 94 96 90 82 79 74 68 60 57 45 37 32 29 19 24 13 13 6 13 5 351 346 356 342 342
113 109 102 106 108 110 113 110 107 101 106 116 126 133 135 130 123 116 113 114 112 109 103 89 83 81 84 80 77 76 64 50 62 44 33 35 26 22 20 24 14 8 5 359 350 346 360 342 344
115 117 113 113 110 108 115 114 115 113 124 128 133 136 135 129 129 127 126 121 116 113 103 100 93 87 91 97 87 71 68 70 49 46 39 32 30 23 14 21 19 12 2 357 344 356 343 335 341
126 120 109 100 109 118 124 113 115 128 141 136 138 134 132 132 131 123 117 116 112 111 109 101 92 87 85 80 71 70 64 57 52 46 36 36 29 21 19 15 18 10 2 357 353 355 339 339 336
138 138 127 96 102 131 152 127 116 144 152 145 143 138 141 139 137 125 122 121 120 119 112 107 102 96 88 82 74 69 63 56 54 47 38 32 30 27 22 15 16 10 4 2 2 354 346 344 339
161 147 134 117 98 137 146 131 130 160 165 154 151 150 150 144 140 135 136 132 128 124 122 116 105 99 97 97 94 73 69 59 53 48 38 25 26 22 26 15 8 9 8 7 2 7 352 352 346
154 149 140 127 105 132 139 138 147 167 174 164 161 161 155 149 143 142 136 133 135 132 124 117 118 111 111 115 102 94 78 66 57 49 40 23 19 18 16 15 15 9 12 10 8 7 2 351 342
152 155 142 123 125 140 150 154 171 172 179 181 177 171 162 151 146 146 145 145 147 142 134 127 132 126 128 117 107 89 82 65 60 48 36 24 18 14 15 6 17 9 16 9 5 0 4 4 351
154 154 140 132 137 159 164 172 178 186 191 193 189 178 171 164 160 152 155 149 147 141 141 139 133 126 118 95 75 69 55 50 50 39 38 22 18 13 4 9 9 16 9 12 10 6 356 7 2
164 173 154 142 143 164 175 189 194 187 192 193 200 199 185 179 173 162 159 155 151 145 144 141 135 130 125 127 124 129 128 150 100 59 39 21 15 16 7 7 3 5 4 13 4 3 1 358 9
164 171 163 165 179 164 209 201 188 186 191 195 198 199 194 183 178 167 164 161 156 148 148 146 139 127 120 130 122 90 47 44 37 18 26 19 23 18 10 4 359 1 3 2 358 8 354 347 355
130 147 159 182 195 188 205 234 173 181 202 201 197 197 195 187 179 172 170 163 158 149 149 145 135 125 117 112 102 92 67 56 50 30 27 12 30 18 13 2 358 358 358 359 356 352 349 348 346
141 147 152 191 220 221 209 239 201 188 205 195 190 192 190 184 178 174 169 165 157 152 152 149 144 129 124 124 117 93 75 56 46 33 23 15 30 21 22 4 359 358 358 356 352 347 349 346 343
185 181 182 193 209 196 155 242 235 174 192 199 191 188 184 180 178 175 171 171 164 162 159 159 154 144 142 142 130 109 93 68 46 26 33 15 24 27 21 10 1 3 1 357 350 347 347 347 343
196 229 246 217 205 159 185 233 194 127 172 198 193 185 179 179 179 177 174 172 167 165 165 165 158 152 150 157 141 123 114 76 50 30 20 22 19 20 15 10 7 7 2 356 355 343 348 346 342
191 221 298 301 265 249 203 219 227 179 192 188 184 182 183 180 179 177 174 174 170 170 170 169 165 161 160 161 154 139 109 82 60 36 23 23 22 17 13 7 7 9 6 358 352 350 350 347 342
266 204 205 234 239 235 217 231 216 185 195 189 188 189 185 181 180 177 175 175 172 170 168 169 172 166 161 165 158 134 129 110 67 21 29 24 23 21 11 8 7 9 7 2 358 350 353 344 346
184 201 223 240 266 274 256 180 112 200 191 192 193 190 185 182 180 178 175 173 171 169 170 172 173 170 162 162 155 157 146 138 129 64 34 13 11 11 8 5 0 4 4 4 360 352 349 342 342
229 227 221 237 229 250 277 282 111 198 201 202 196 189 185 182 180 177 174 172 172 174 174 175 175 170 164 161 159 153 143 153 146 81 35 8 11 4 359 1 358 0 355 354 353 348 343 339 337